[[{"header":{"parameterUnit":"m.s-1","parameterCategory":1,"la1":30.2991,"la2":30.254,"lo1":-89.0895,"lo2":-89.0444,"dy":0.0017,"dx":0.0017,"nx":28,"ny":28,"refTime":"2023-03-29T21:00:00:Z","depth":0,"parameterNumber":2,"parameterNumberName":"U-component_of_WINDS"},"data":[0,0,0,0,0,0,0,0,0,0,0,0,0,0,0,0,0,0,0,0,0,0,0,0,0,0,0,0,0,0,0,0,0,0,0,0,0,0,0,0,0,0,0,0,0,0,0,0,0,0,0,0,0,0,0,0,0,0,-2.0692,-2.0694,0,-2.0823,-2.0825,-2.0826,-2.0898,-2.0899,-2.0899,-2.0899,-2.1036,-2.1039,-2.1042,0,0,0,0,0,0,0,0,0,0,0,0,0,-2.0507,-2.051,-2.0692,-2.0694,-2.0695,-2.0823,-2.0825,-2.0827,-2.0898,-2.0899,-2.0899,-2.0899,-2.1034,-2.1038,-2.1043,0,0,0,0,0,0,0,0,0,0,0,0,0,-2.0607,-2.0511,-2.0692,-2.0746,-2.0753,-2.0823,-2.0825,-2.0827,-2.0898,-2.0899,-2.0899,-2.0899,-2.1033,-2.1038,-2.1043,-2.107,0,0,-2.1059,-2.1061,0,0,0,0,0,0,0,0,-2.0602,-2.0614,-2.0737,-2.0743,-2.075,-2.0845,-2.081,-2.0909,-2.0898,-2.0843,-2.0899,-2.0899,-2.0972,-2.0982,-2.1006,-2.1076,-2.1082,-2.106,-2.1063,-2.1065,-2.1066,0,0,0,0,0,0,0,-2.0595,-2.0609,-2.0744,-2.0738,-2.0746,-2.0765,-2.078,-2.0829,-2.0904,-2.0848,-2.0853,-2.0868,-2.0976,-2.1001,-2.101,-2.1084,-2.1059,-2.1064,-2.1067,-2.1069,-2.1184,-2.1184,0,0,0,0,0,0,-2.0578,-2.0603,-2.074,-2.0748,-2.0675,-2.0769,-2.0785,-2.0814,-2.0904,-2.0918,-2.0867,-2.0871,-2.0992,-2.1004,-2.1015,-2.1053,-2.1065,-2.107,-2.1073,-2.1184,-2.1184,-2.1184,0,0,0,0,0,0,-2.0574,-2.059,-2.0735,-2.0677,-2.0697,-2.0771,-2.0804,-2.0816,-2.0842,-2.0919,-2.0933,-2.0879,-2.0993,-2.1008,-2.1056,-2.1059,-2.1072,-2.1077,-2.1184,-2.1184,-2.1184,-2.1128,0,0,0,0,0,0,-2.0569,-2.0588,-2.0598,-2.0677,-2.07,-2.0772,-2.0804,-2.0819,-2.0851,-2.0856,-2.0934,-2.0947,-2.0994,-2.1048,-2.1061,-2.1066,-2.1081,-2.1184,-2.1184,-2.1184,-2.113,-2.1126,-2.1122,0,0,0,0,0,-2.0562,-2.0577,-2.0598,-2.0614,-2.0713,-2.0772,-2.0785,-2.0839,-2.085,-2.0862,-2.0911,-2.0945,-2.1056,-2.1052,-2.1068,-2.1074,-2.1184,-2.1184,-2.1184,-2.1131,-2.1127,-2.1123,0,0,0,0,0,0,-2.0498,-2.0589,-2.0613,-2.0654,-2.0705,-2.0784,-2.08,-2.0832,-2.088,-2.0884,-2.0949,-2.0966,-2.1008,-2.1046,-2.104,-2.1105,-2.1124,-2.1127,-2.1079,-2.1075,-2.1071,-2.1061,-2.1085,0,0,0,0,0,-2.0489,-2.0527,-2.0605,-2.0634,-2.0658,-2.0724,-2.0752,-2.0789,-2.0844,-2.0866,-2.0919,-2.0972,-2.102,-2.1049,-2.1097,-2.1136,-2.1154,-2.1148,-2.1144,-2.1141,-2.1143,-2.1168,-2.1166,-2.1183,-2.1183,-2.1183,0,0,-2.047,-2.0524,-2.0545,-2.0623,-2.0666,-2.0706,-2.0742,-2.0783,-2.0813,-2.0873,-2.0921,-2.0962,-2.1026,-2.1069,-2.1091,-2.1102,-2.1142,-2.1141,-2.1138,-2.1142,-2.1167,-2.1165,-2.1164,-2.1183,-2.1183,-2.1183,0,0,-2.0456,-2.0501,-2.053,-2.0573,-2.0638,-2.0682,-2.0689,-2.0764,-2.0793,-2.0843,-2.0889,-2.0927,-2.1006,-2.105,-2.1083,-2.1086,-2.1119,-2.11,-2.1081,-2.1104,-2.1103,-2.1102,-2.1104,-2.1104,-2.1102,-2.1102,-2.1102,0,-2.0425,-2.0486,-2.0542,-2.058,-2.0613,-2.0668,-2.0699,-2.0738,-2.0816,-2.0838,-2.085,-2.0951,-2.0998,-2.1053,-2.1054,-2.1079,-2.109,-2.1092,-2.1099,-2.1098,-2.1098,-2.1101,-2.1102,-2.1099,-2.1099,-2.11,-2.11,0,-2.0445,-2.0486,-2.0503,-2.0575,-2.0611,-2.0645,-2.0707,-2.0736,-2.077,-2.0813,-2.0864,-2.0922,-2.0983,-2.0998,-2.1032,-2.1059,-2.1064,-2.1086,-2.1106,-2.1093,-2.1097,-2.1098,-2.1095,-2.1096,-2.1097,-2.1098,0,0,-2.0394,-2.0498,-2.0503,-2.0537,-2.0613,-2.0647,-2.0684,-2.0743,-2.0767,-2.082,-2.0853,-2.092,-2.0941,-2.0978,-2.1017,-2.1037,-2.1038,-2.1058,-2.106,-2.1052,-2.1072,-2.1055,-2.1055,-2.106,-2.106,-2.1061,-2.1067,0,-2.0392,-2.046,-2.0512,-2.0561,-2.0601,-2.0654,-2.0687,-2.0738,-2.078,-2.082,-2.0867,-2.0913,-2.0937,-2.096,-2.0983,-2.1033,-2.1043,-2.1033,-2.1093,-2.1094,-2.1075,-2.1057,-2.1039,-2.1042,-2.1069,-2.1069,-2.1069,0,-2.0398,-2.0448,-2.05,-2.0573,-2.0592,-2.062,-2.0679,-2.0717,-2.0776,-2.0805,-2.0847,-2.0887,-2.0931,-2.0946,-2.1007,-2.1,-2.1027,-2.1056,-2.1057,-2.1065,-2.1081,-2.1065,-2.1045,-2.1045,-2.1072,-2.1072,-2.1072,0,-2.0357,-2.0437,-2.0479,-2.0507,-2.0592,-2.0611,-2.0648,-2.0708,-2.074,-2.0792,-2.0814,-2.087,-2.09,-2.0943,-2.0999,-2.1005,-2.1054,-2.1074,-2.1081,-2.1079,-2.1089,-2.1087,-2.1073,-2.1106,-2.1106,-2.1106,-2.1106,0,-2.0349,-2.038,-2.0462,-2.0487,-2.0524,-2.0583,-2.0618,-2.0659,-2.0712,-2.0748,-2.0798,-2.0831,-2.0902,-2.0944,-2.0987,-2.1032,-2.1045,-2.1071,-2.1082,-2.1066,-2.1063,-2.1086,-2.1087,-2.1106,-2.1106,-2.1106,-2.1106,0,-2.0309,-2.0365,-2.0415,-2.0492,-2.0512,-2.0535,-2.0602,-2.063,-2.0674,-2.0719,-2.0733,-2.0803,-2.0855,-2.0914,-2.0986,-2.1016,-2.1057,-2.1073,-2.1037,-2.1043,-2.1046,-2.1045,-2.1046,-2.1049,-2.1079,-2.1078,-2.1078,0,-2.03,-2.0325,-2.0404,-2.0432,-2.0467,-2.051,-2.0543,-2.0603,-2.0636,-2.0706,-2.0726,-2.0781,-2.0829,-2.091,-2.0968,-2.1024,-2.1042,-2.1038,-2.1051,-2.1034,-2.1043,-2.1041,-2.1044,-2.1035,-2.1034,-2.1033,-2.1033,0,-2.028,-2.0306,-2.0351,-2.0406,-2.0444,-2.0491,-2.0539,-2.0559,-2.063,-2.0664,-2.0717,-2.0754,-2.0827,-2.0883,-2.0945,-2.0985,-2.1021,-2.1029,-2.1033,-2.1018,-2.0996,-2.1008,-2.1028,-2.1028,-2.1029,-2.1029,-2.103,-2.103,-2.0256,-2.028,-2.034,-2.0389,-2.0432,-2.0476,-2.0506,-2.0554,-2.0599,-2.0663,-2.0696,-2.0749,-2.081,-2.0898,-2.0936,-2.098,-2.0992,-2.0998,-2.1,-2.1,-2.0996,-2.0988,-2.0991,-2.0991,-2.0992,-2.0992,-2.0992,0,-2.0238,-2.0279,-2.0323,-2.0389,-2.0428,-2.0458,-2.0514,-2.0545,-2.059,-2.0643,-2.0689,-2.0751,-2.0805,-2.0867,-2.0925,-2.0948,-2.0966,-2.0961,-2.096,-2.0969,-2.0982,-2.0972,-2.0946,-2.0946,-2.0946,-2.0946,-2.0946,-2.0946,-2.0233,-2.0276,-2.031,-2.0376,-2.0417,-2.0468,-2.0498,-2.054,-2.0582,-2.0649,-2.0693,-2.0733,-2.0791,-2.0853,-2.0905,-2.0922,-2.0941,-2.0931,-2.0953,-2.0964,-2.0968,-2.0972,-2.0963,-2.0935,-2.0935,-2.0938,-2.0938,-2.0938]},{"header":{"parameterUnit":"m.s-1","parameterCategory":1,"la1":30.2991,"la2":30.254,"lo1":-89.0895,"lo2":-89.0444,"dy":0.0017,"dx":0.0017,"nx":28,"ny":28,"refTime":"2023-03-29T21:00:00:Z","depth":0,"parameterNumber":3,"parameterNumberName":"V-component_of_WINDS"},"data":[0,0,0,0,0,0,0,0,0,0,0,0,0,0,0,0,0,0,0,0,0,0,0,0,0,0,0,0,0,0,0,0,0,0,0,0,0,0,0,0,0,0,0,0,0,0,0,0,0,0,0,0,0,0,0,0,0,0,5.1931,5.1931,0,5.1846,5.1845,5.1844,5.1852,5.1853,5.1854,5.1856,5.1762,5.1759,5.1755,0,0,0,0,0,0,0,0,0,0,0,0,0,5.2097,5.2094,5.1932,5.193,5.1929,5.1846,5.1845,5.1844,5.1851,5.1853,5.1855,5.1856,5.1763,5.1759,5.1755,0,0,0,0,0,0,0,0,0,0,0,0,0,5.202,5.2093,5.1932,5.1923,5.1922,5.1846,5.1845,5.1843,5.1851,5.1853,5.1855,5.1857,5.1765,5.1759,5.1754,5.1679,0,0,5.1737,5.1734,0,0,0,0,0,0,0,0,5.2024,5.2014,5.1926,5.1924,5.1922,5.1862,5.1869,5.1788,5.1851,5.1878,5.1856,5.1858,5.1793,5.1785,5.1765,5.1675,5.1671,5.1736,5.1733,5.1731,5.1729,0,0,0,0,0,0,0,5.2029,5.2017,5.1897,5.1924,5.1922,5.1922,5.1914,5.1854,5.1825,5.1876,5.1876,5.1866,5.1793,5.177,5.1763,5.167,5.1736,5.1731,5.1728,5.1726,5.1517,5.1515,0,0,0,0,0,0,5.2037,5.2022,5.19,5.1895,5.1979,5.1918,5.1908,5.1879,5.1826,5.182,5.1864,5.1867,5.1779,5.1769,5.1759,5.1671,5.1731,5.1725,5.1722,5.152,5.1517,5.1515,0,0,0,0,0,0,5.2041,5.2027,5.1904,5.1958,5.1943,5.1913,5.188,5.1876,5.1854,5.1818,5.1812,5.1847,5.178,5.1767,5.17,5.1668,5.1723,5.1718,5.1522,5.1519,5.1516,5.1492,0,0,0,0,0,0,5.2046,5.2028,5.2,5.1958,5.194,5.1847,5.1878,5.1873,5.1845,5.1847,5.18,5.1794,5.1781,5.1709,5.1695,5.1661,5.1713,5.1525,5.1521,5.1517,5.1496,5.1489,5.1482,0,0,0,0,0,5.2052,5.1995,5.1999,5.1984,5.1905,5.1845,5.1835,5.1822,5.1842,5.1814,5.1791,5.1795,5.1674,5.1702,5.1686,5.165,5.1527,5.1522,5.1517,5.1499,5.149,5.1483,0,0,0,0,0,0,5.2031,5.1989,5.1993,5.1921,5.1887,5.1847,5.181,5.1813,5.1771,5.1774,5.1759,5.1748,5.1681,5.1659,5.1691,5.1577,5.1603,5.1595,5.1594,5.1585,5.1579,5.1586,5.1709,0,0,0,0,0,5.2018,5.1975,5.194,5.188,5.1863,5.184,5.1813,5.1807,5.177,5.1755,5.1727,5.169,5.1644,5.1613,5.1568,5.1493,5.1483,5.146,5.1454,5.1448,5.1442,5.1402,5.1393,5.1498,5.1499,5.1499,0,0,5.1991,5.1963,5.1936,5.1875,5.1848,5.1803,5.1827,5.1777,5.1744,5.1747,5.1683,5.1661,5.1619,5.1548,5.1515,5.1527,5.141,5.1442,5.1438,5.1434,5.1396,5.1386,5.1378,5.1495,5.1496,5.1496,0,0,5.1919,5.1893,5.1842,5.1815,5.1775,5.176,5.1748,5.1708,5.1694,5.1631,5.1633,5.1592,5.1511,5.1482,5.1457,5.1377,5.138,5.1362,5.1327,5.1289,5.1281,5.1274,5.1247,5.1237,5.1355,5.1355,5.1355,0,5.189,5.1824,5.1814,5.1765,5.1739,5.1743,5.169,5.1664,5.161,5.1591,5.1606,5.1508,5.1479,5.1403,5.1384,5.1363,5.1349,5.1368,5.1283,5.1276,5.1269,5.1243,5.1233,5.1354,5.1354,5.1354,5.1354,0,5.1791,5.1745,5.1707,5.1659,5.1629,5.1578,5.156,5.153,5.1527,5.151,5.1446,5.1413,5.1362,5.1344,5.1338,5.1267,5.1276,5.1287,5.1313,5.1257,5.1233,5.1223,5.1351,5.1352,5.1352,5.1353,0,0,5.1702,5.1652,5.1638,5.1618,5.1575,5.1538,5.1488,5.1442,5.1417,5.138,5.1338,5.1272,5.1283,5.1254,5.1246,5.1212,5.1154,5.1227,5.1226,5.1217,5.1076,5.1069,5.1058,5.1156,5.1154,5.1152,5.108,0,5.1627,5.1541,5.1532,5.1455,5.1413,5.1417,5.1374,5.1342,5.1326,5.1287,5.1268,5.1223,5.1239,5.1223,5.119,5.1168,5.1126,5.1173,5.1117,5.1115,5.1129,5.1045,5.1036,5.097,5.107,5.1068,5.1067,0,5.1528,5.1492,5.1412,5.1378,5.136,5.1321,5.1279,5.1242,5.1207,5.1197,5.1167,5.1164,5.1112,5.114,5.1069,5.1102,5.1078,5.1064,5.1062,5.1056,5.1088,5.1039,5.0948,5.0938,5.1052,5.1053,5.1054,0,5.1475,5.1405,5.1349,5.1331,5.1289,5.1262,5.1243,5.121,5.1184,5.1146,5.1129,5.1085,5.1061,5.1027,5.1013,5.1034,5.0943,5.0969,5.0934,5.0935,5.0915,5.0917,5.0821,5.0898,5.0898,5.0898,5.0898,0,5.1393,5.1344,5.1325,5.1291,5.1236,5.1226,5.1172,5.1153,5.1125,5.1086,5.1085,5.1049,5.1032,5.0993,5.0981,5.0925,5.0913,5.0905,5.0902,5.0905,5.0907,5.089,5.0895,5.0896,5.0896,5.0897,5.0897,0,5.1324,5.1309,5.1249,5.1215,5.1206,5.1167,5.1138,5.1104,5.1089,5.1041,5.1029,5.1004,5.0959,5.0941,5.0884,5.0876,5.0813,5.0813,5.0826,5.0825,5.0792,5.0796,5.0683,5.0668,5.0754,5.0753,5.0752,0,5.1273,5.1236,5.12,5.1176,5.1157,5.1117,5.1091,5.1079,5.1052,5.1011,5.0982,5.0937,5.0901,5.0828,5.0805,5.0762,5.0762,5.0726,5.0755,5.0761,5.0764,5.0767,5.0764,5.072,5.0719,5.0719,5.0718,0,5.1186,5.1182,5.1145,5.1107,5.1077,5.1045,5.1014,5.0994,5.0978,5.0947,5.0902,5.0874,5.0818,5.0774,5.073,5.0709,5.0711,5.0709,5.0699,5.0702,5.0712,5.0708,5.0812,5.0712,5.0712,5.0713,5.0713,5.0713,5.1126,5.1095,5.1065,5.1025,5.1002,5.0974,5.0942,5.0924,5.0887,5.0842,5.0837,5.0789,5.0756,5.0698,5.0676,5.0638,5.0647,5.0632,5.0629,5.0626,5.0625,5.0717,5.063,5.063,5.063,5.063,5.063,0,5.1041,5.1023,5.0986,5.0945,5.0914,5.092,5.0887,5.086,5.0819,5.0789,5.0754,5.0703,5.0661,5.0636,5.0593,5.0568,5.0568,5.0557,5.056,5.0555,5.0617,5.0631,5.0558,5.0558,5.0558,5.0558,5.0558,5.0558,5.0993,5.0941,5.0933,5.0869,5.0851,5.0806,5.0787,5.0761,5.0738,5.0682,5.0648,5.0632,5.0604,5.056,5.0522,5.0516,5.0501,5.049,5.0484,5.0543,5.055,5.0558,5.0571,5.0486,5.0486,5.0426,5.0425,5.0425]}]]